Home   Weather   Sandnessjøen   Past weeks

Flag for Norway Past Weather in Sandnessjøen, Norway — Yesterday and Last 2 Weeks

39 °F


Feels Like: 35 °F
Forecast: 42 / 43 °F
Wind: 6 mph from North

Location: Sandnessjoen / Stokka

Current Time: Oct 22, 2016 at 12:08:28 AM

Latest Report: Oct 21, 2016 at 9:50 PM

Visibility: 10 mi

Pressure: 30.48 "Hg

Humidity: 56%

Dew Point: 25 °F

Location of SandnessjøenLocation

Past Weather in Sandnessjøen — Graph


Sandnessjøen Temperature Yesterday

Maximum temperature yesterday: 46 °F (at 11:50 AM)
Minimum temperature yesterday: 39 °F (at 10:20 AM)
Average temperature yesterday: 43 °F

High & Low Weather Summary for the Past Weeks

High54 °F (Oct 7, 12:20 PM)93% (Oct 6, 9:20 PM)30.77 "Hg (Oct 6, 9:20 PM)
Low34 °F (Oct 16, 10:20 PM)46% (Oct 15, 11:50 AM)30.04 "Hg (Oct 18, 4:50 AM)
Average44 °F71%30.43 "Hg
* Reported Oct 6 9:20 PM — Oct 21 9:50 PM, Sandnessjøen, Weather by CustomWeather, © 2016

Note: Actual official high and low records may vary slightly from our data, if they occured in-between our weather recording intervals... More about our weather records


Sandnessjøen Weather History for the Previous 24 Hours

Scroll right to see more
Time TempWeatherWind HumidityBarometerVisibility
9:50 PM
Fri, Oct 21
39 °FClear.6 mph56%30.48 "Hg10 mi
9:20 PM39 °FClear.5 mph56%30.48 "Hg10 mi
8:50 PM41 °FClear.5 mph57%30.48 "Hg10 mi
8:20 PM41 °FClear.5 mph57%30.45 "Hg10 mi
7:50 PM41 °FClear.5 mph53%30.45 "Hg10 mi
7:20 PM41 °FPassing clouds.3 mph57%30.45 "HgN/A
6:50 PM41 °FPassing clouds.5 mph57%30.45 "HgN/A
6:20 PM39 °FClear.2 mph61%30.45 "Hg10 mi
5:50 PM39 °FClear.7 mph61%30.45 "Hg10 mi
5:20 PM41 °FPassing clouds.5 mph61%30.45 "HgN/A
4:50 PM45 °FSunny.5 mph53%30.42 "Hg10 mi
3:50 PM46 °FPassing clouds.5 mph50%30.42 "HgN/A
3:20 PM46 °FPassing clouds.8 mph50%30.42 "HgN/A
2:50 PM46 °FSunny.6 mph50%30.42 "Hg10 mi
2:20 PM46 °FSunny.8 mph50%30.42 "Hg10 mi
1:50 PM46 °FSunny.5 mph50%30.42 "Hg10 mi
1:20 PM46 °FPassing clouds.6 mph50%30.42 "HgN/A
12:50 PM46 °FPassing clouds.7 mph50%30.42 "HgN/A
12:20 PM46 °FSunny.3 mph46%30.42 "Hg10 mi
11:50 AM46 °FPassing clouds.5 mph50%30.42 "HgN/A
11:20 AM45 °FPassing clouds.7 mph49%30.42 "HgN/A
10:50 AM41 °FSunny.5 mph61%30.42 "Hg10 mi
10:20 AM39 °FPassing clouds.7 mph65%30.42 "HgN/A
9:50 AM41 °FPassing clouds.7 mph57%30.39 "HgN/A
9:20 AM41 °FPassing clouds.8 mph57%30.39 "HgN/A
8:50 AM41 °FSunny.5 mph57%30.39 "Hg10 mi
8:20 AM43 °FPassing clouds.8 mph57%30.39 "HgN/A
7:50 AM41 °FClear.5 mph61%30.39 "Hg10 mi
7:20 AM43 °FClear.5 mph57%30.39 "Hg10 mi
6:50 AM43 °FPassing clouds.5 mph57%30.39 "HgN/A
6:20 AM43 °FPassing clouds.6 mph57%30.39 "HgN/A
5:50 AM45 °FPassing clouds.7 mph53%30.36 "HgN/A
5:20 AM45 °FClear.6 mph53%30.36 "Hg10 mi
4:50 AM45 °FClear.7 mph57%30.36 "Hg10 mi
Weather by CustomWeather, © 2016

See weather overviewHow to use our weather pages